Content
SEND FEEDBACK

Daily
Averages
Monthly
Summary
Mexico

CANCUN, QUINTANA ROO


Home > North America > Mexico > Quintana Roo
Elevation: 9 meters     Latitude: 21 09N     Longitude: 086 49W

WEATHER
 
SELECT A DAY
Number of Records: 165,825;   Date Range: 1/1/95 - 9/29/14
 
SHARE

PRINT THIS DATA

[ ← Previous Day ]
WEATHER ALMANAC - 12 FEBRUARY, 2014
[ Next Day → ]
[ °F ]   °C
Weather ElementAverageHighLow
Temperature25.3 °C29 °C (1:40 pm)21 °C (11:45 pm)
Dewpoint21.3 °C22 °C (1:44 am)20 °C (2:41 pm)
Humidity79.7 %94 % (1:44 am)58 % (2:41 pm)
Barometer1012.9 hPa1014.6 hPa (7:46 am)1010.8 hPa (5:46 pm)
Wind Speed12.7 km/h24.1 km/h (12:48 pm)
Weather ElementAverage
Visibility11.3 km
Wind DirectionSSE (170.4 °)

Weather ElementTotal
Precipitation---
Cooling Degree Days6.7 (Base 18.3)
Growing Degree Days15 (Base 10)
Averaged from 23 records on 12 February, 2014
WEATHER CONDITIONS BREAKOUT
WIND DIRECTION BREAKOUT
WEATHER BY HOUR - 12 FEBRUARY, 2014
[ °F ]   °C
Local TimeTemperatureDewpointHumidityBarometerVisibilityWind DirectionWind SpeedGust SpeedPrecipitationEventsConditions
1:44 AM23 °C22 °C94 %1014.2 hPa11.3 kmESE (120°)9.3 km/hClear
2:48 AM23 °C22 °C94 %1012.9 hPa11.3 kmSE (130°)9.3 km/hClear
3:47 AM23 °C22 °C94 %1013.2 hPa11.3 kmESE (120°)9.3 km/hPartly Cloudy
4:46 AM23 °C22 °C94 %1013.2 hPa11.3 kmSE (130°)9.3 km/hScattered Clouds
5:46 AM24 °C22 °C89 %1013.9 hPa11.3 kmSSE (150°)9.3 km/hScattered Clouds
6:46 AM24 °C21 °C83 %1013.9 hPa11.3 kmSSE (160°)9.3 km/hPartly Cloudy
7:46 AM25 °C22 °C83 %1014.6 hPa11.3 kmSSE (160°)9.3 km/hScattered Clouds
8:43 AM27 °C22 °C74 %1014.6 hPa11.3 kmSSE (160°)14.8 km/hScattered Clouds
9:41 AM28 °C22 °C70 %1014.6 hPa11.3 kmSSE (160°)16.7 km/hScattered Clouds
10:43 AM28 °C22 °C70 %1014.2 hPa11.3 kmSouth (180°)18.5 km/hScattered Clouds
11:43 AM28 °C22 °C70 %1012.9 hPa11.3 kmSSE (150°)14.8 km/hMostly Cloudy
12:48 PM28 °C22 °C70 %1012.5 hPa11.3 kmSSE (150°)24.1 km/hMostly Cloudy
1:40 PM29 °C21 °C62 %1011.9 hPa11.3 kmSouth (180°)16.7 km/hMostly Cloudy
2:41 PM29 °C20 °C58 %1011.2 hPa11.3 kmSSW (200°)18.5 km/hMostly Cloudy
3:43 PM29 °C20 °C58 %1011.2 hPa11.3 kmSouth (180°)22.2 km/hScattered Clouds
4:47 PM27 °C20 °C65 %1011.5 hPa11.3 kmSouth (190°)14.8 km/hScattered Clouds
5:46 PM26 °C21 °C74 %1010.8 hPa11.3 kmSouth (180°)11.1 km/hMostly Cloudy
6:41 PM25 °C22 °C83 %1012.2 hPa11.3 kmSouth (190°)7.4 km/hMostly Cloudy
7:41 PM25 °C22 °C83 %1011.9 hPa11.3 kmSSE (150°)9.3 km/hMostly Cloudy
8:44 PM23 °C22 °C94 %1012.2 hPa11.3 kmCalmScattered Clouds
9:47 PM22 °C20 °C88 %1014.2 hPa11.3 kmNW (310°)16.7 km/hMostly Cloudy
10:42 PM22 °C20 °C88 %1013.9 hPa11.3 kmWNW (290°)13 km/hMostly Cloudy
11:45 PM21 °C20 °C94 %1011.9 hPa11.3 kmWest (280°)7.4 km/hMostly Cloudy
Hourly data recorded from MMUN, located 0 kilometers away from Cancun, Quintana Roo







STORIES FROM OUR PARTNERS